Location: Ferintosh
(52.7647°N, 112.9692°W)
Time: 10:47:44
(UTC+00:00)

Transit 2A Rocket - All Passes

Search period start: 19 May 2024 00:00
Search period end: 29 May 2024 00:00
Orbit: 585 x 908 km, 66.7° (Epoch: 18 May)

Date Brightness Start Highest point End Pass type
(mag) Time Alt. Az. Time Alt. Az. Time Alt. Az.
19 May - 10:43:07 10° ESE 10:44:28 11° E 10:45:52 10° E visible
19 May - 12:20:59 10° SSW 12:25:45 62° ESE 12:31:02 10° NE daylight
19 May - 14:03:58 10° W 14:08:37 36° NNW 14:13:41 10° NNE daylight
19 May - 15:48:47 10° NW 15:52:41 20° N 15:56:48 10° NE daylight
19 May - 17:32:43 10° NW 17:37:06 23° NNE 17:41:43 10° ENE daylight
19 May - 19:15:17 10° NW 19:20:51 51° NE 19:26:43 10° ESE daylight
19 May - 20:57:55 10° NW 21:03:27 46° WSW 21:09:12 10° S daylight
20 May - 11:37:27 10° S 11:41:54 38° ESE 11:46:47 10° NE daylight
20 May - 13:19:29 10° WSW 13:24:19 49° NW 13:29:39 10° NE daylight
20 May - 15:04:02 10° WNW 15:08:07 22° NNW 15:12:28 10° NE daylight
20 May - 16:48:27 10° NW 16:52:33 21° N 16:56:51 10° ENE daylight
20 May - 18:31:16 10° NW 18:36:35 38° NE 18:42:09 10° ESE daylight
20 May - 20:13:45 10° NW 20:19:32 69° SW 20:25:33 10° SSE daylight
20 May - 21:57:43 10° WNW 22:01:12 16° WSW 22:04:45 10° SW daylight
21 May - 10:54:20 10° SSE 10:58:12 24° ESE 11:02:20 10° ENE daylight
21 May - 12:35:14 10° SW 12:40:08 72° NW 12:45:36 10° NE daylight
21 May - 14:19:17 10° W 14:23:36 26° NNW 14:28:15 10° NNE daylight
21 May - 16:04:02 10° NW 16:07:57 20° N 16:12:05 10° NE daylight
21 May - 17:47:14 10° NNW 17:52:12 30° NNE 17:57:25 10° E daylight
21 May - 19:29:41 10° NW 19:35:30 83° NE 19:41:35 10° SE daylight
21 May - 21:12:50 10° WNW 21:17:33 25° WSW 21:22:22 10° SSW daylight
22 May - 10:11:57 10° SE 10:14:36 15° ESE 10:17:22 10° ENE visible
22 May - 11:51:13 10° SSW 11:56:05 77° SE 12:01:31 10° NE daylight
22 May - 13:34:35 10° W 13:39:09 32° NNW 13:44:08 10° NNE daylight
22 May - 15:19:27 10° NW 15:23:21 20° N 15:27:27 10° NE daylight
22 May - 17:03:08 10° NW 17:07:44 25° NNE 17:12:34 10° ENE daylight
22 May - 18:45:39 10° NW 18:51:21 59° NE 18:57:19 10° ESE daylight
22 May - 20:28:24 10° NW 20:33:47 38° WSW 20:39:19 10° S daylight
23 May - 11:07:30 10° SSW 11:12:11 48° ESE 11:17:19 10° NE daylight
23 May - 12:50:01 10° WSW 12:54:49 42° NW 13:00:04 10° NE daylight
23 May - 14:34:44 10° WNW 14:38:45 21° NNW 14:43:01 10° NE daylight
23 May - 16:18:56 10° NW 16:23:12 22° NNE 16:27:40 10° ENE daylight
23 May - 18:01:38 10° NW 18:07:07 44° NE 18:12:51 10° ESE daylight
23 May - 19:44:11 10° NW 19:49:54 58° WSW 19:55:50 10° SSE daylight
23 May - 21:28:51 10° WNW 21:31:23 13° WSW 21:33:55 10° SW daylight
24 May - 10:24:10 10° S 10:28:23 30° ESE 10:33:00 10° NE visible
24 May - 12:05:39 10° SW 12:10:34 60° NW 12:16:02 10° NE daylight
24 May - 13:49:57 10° WNW 13:54:12 24° NNW 13:58:45 10° NE daylight
24 May - 15:34:34 10° NW 15:38:36 20° N 15:42:50 10° NE daylight
24 May - 17:17:36 10° NNW 17:22:46 34° NNE 17:28:11 10° E daylight
24 May - 19:00:04 10° NW 19:05:54 84° SW 19:12:00 10° SE daylight
24 May - 20:43:32 10° WNW 20:47:47 21° WSW 20:52:06 10° SSW daylight
25 May - 09:41:22 10° SSE 09:44:45 19° ESE 09:48:20 10° ENE visible
25 May - 11:21:30 10° SW 11:26:27 88° NW 11:31:57 10° NE daylight
25 May - 13:05:13 10° W 13:09:43 29° NNW 13:14:35 10° NNE daylight
25 May - 14:50:03 10° NW 14:53:59 20° N 14:58:08 10° NE daylight
25 May - 16:33:31 10° NNW 16:38:20 27° NNE 16:43:22 10° E daylight
25 May - 18:16:00 10° NW 18:21:49 70° NE 18:27:52 10° SE daylight
25 May - 19:58:55 10° NW 20:04:03 32° WSW 20:09:19 10° S daylight
26 May - 08:59:52 10° ESE 09:01:12 11° E 09:02:34 10° E visible
26 May - 10:37:38 10° SSW 10:42:27 61° ESE 10:47:48 10° NE daylight
26 May - 12:20:34 10° WSW 12:25:18 37° NNW 12:30:29 10° NE daylight
26 May - 14:05:23 10° NW 14:09:22 20° N 14:13:36 10° NE daylight
26 May - 15:49:22 10° NW 15:53:49 23° NNE 15:58:29 10° ENE daylight
26 May - 17:31:58 10° NW 17:37:36 50° NE 17:43:29 10° ESE daylight
26 May - 19:14:36 10° NW 19:20:13 48° WSW 19:26:01 10° S daylight
27 May - 09:54:06 10° S 09:58:36 38° ESE 10:03:33 10° NE visible
27 May - 11:36:06 10° WSW 11:41:01 51° NW 11:46:25 10° NE daylight
27 May - 13:20:37 10° WNW 13:24:48 23° NNW 13:29:14 10° NE daylight
27 May - 15:05:04 10° NW 15:09:14 21° N 15:13:36 10° ENE daylight
27 May - 16:47:57 10° NW 16:53:18 38° NE 16:58:53 10° ESE daylight
27 May - 18:30:26 10° NW 18:36:17 71° SW 18:42:20 10° SSE daylight
27 May - 20:14:20 10° WNW 20:17:58 17° WSW 20:21:38 10° SW daylight
28 May - 09:11:00 10° SSE 09:14:53 24° ESE 09:19:05 10° ENE visible
28 May - 10:51:50 10° SW 10:56:49 74° NW 11:02:21 10° NE daylight
28 May - 12:35:51 10° W 12:40:16 27° NNW 12:45:01 10° NE daylight
28 May - 14:20:37 10° NW 14:24:37 20° N 14:28:49 10° NE daylight
28 May - 16:03:53 10° NNW 16:08:54 30° NNE 16:14:08 10° E daylight
28 May - 17:46:21 10° NW 17:52:13 81° NE 17:58:19 10° SE daylight
28 May - 19:29:29 10° WNW 19:34:18 26° WSW 19:39:11 10° SSW daylight
